EAG5511 SBBR-SBSP

Flight info

Callsign EAG5511
Flight time 1h 25m
Altitude 43000
Route GEBEP/N0479F410 UZ2 ENTIT
Aircraft C700/M-SBDGHM1RWXY/LB2

Departure

Time 2026-05-05 13:16
Airport Presidente Juscelino Kubitschek International Airport (SBBR)

Arrival

Time 2026-05-05 14:41
Airport Congonhas–Deputado Freitas Nobre Airport (SBSP)
Time Latitude Longitude Altitude Speed Heading
2026-05-05 13:07 -15.87561 -47.91731 3464 ft 0 kts 356°
2026-05-05 13:10 -15.87558 -47.91728 3464 ft 1 kts 47°
2026-05-05 13:10 -15.87565 -47.91721 3464 ft 3 kts 152°
2026-05-05 13:10 -15.87604 -47.91734 3464 ft 8 kts 220°
2026-05-05 13:11 -15.87645 -47.91787 3464 ft 11 kts 245°
2026-05-05 13:11 -15.87660 -47.91870 3465 ft 13 kts 266°
2026-05-05 13:11 -15.87676 -47.91967 3463 ft 14 kts 231°
2026-05-05 13:11 -15.87758 -47.92017 3465 ft 15 kts 251°
2026-05-05 13:12 -15.87767 -47.92131 3465 ft 17 kts 266°
2026-05-05 13:12 -15.87776 -47.92259 3464 ft 19 kts 265°
2026-05-05 13:12 -15.87786 -47.92401 3466 ft 21 kts 266°
2026-05-05 13:12 -15.87795 -47.92557 3466 ft 23 kts 266°
2026-05-05 13:13 -15.87806 -47.92725 3466 ft 24 kts 266°
2026-05-05 13:13 -15.87818 -47.92903 3466 ft 26 kts 267°
2026-05-05 13:13 -15.87829 -47.93094 3466 ft 27 kts 266°
2026-05-05 13:13 -15.87843 -47.93295 3466 ft 28 kts 266°
2026-05-05 13:14 -15.87857 -47.93504 3466 ft 29 kts 265°
2026-05-05 13:14 -15.87869 -47.93719 3467 ft 30 kts 266°
2026-05-05 13:14 -15.87883 -47.93919 3468 ft 21 kts 266°
2026-05-05 13:14 -15.87943 -47.93998 3471 ft 11 kts 180°
2026-05-05 13:15 -15.88002 -47.93993 3476 ft 8 kts 175°
2026-05-05 13:15 -15.88056 -47.93969 3480 ft 10 kts 124°
2026-05-05 13:15 -15.88054 -47.93830 3478 ft 46 kts 87°
2026-05-05 13:15 -15.88013 -47.93165 3472 ft 137 kts 86°
2026-05-05 13:16 -15.87935 -47.91929 3907 ft 197 kts 89°
2026-05-05 13:16 -15.88138 -47.90461 5293 ft 220 kts 114°
2026-05-05 13:16 -15.89321 -47.89370 6786 ft 245 kts 151°
2026-05-05 13:16 -15.91041 -47.88800 8033 ft 272 kts 163°
2026-05-05 13:17 -15.92898 -47.88375 9753 ft 274 kts 164°
2026-05-05 13:17 -15.94801 -47.87876 11067 ft 294 kts 162°
2026-05-05 13:17 -15.96847 -47.87272 12219 ft 313 kts 162°
2026-05-05 13:17 -15.98969 -47.86664 13789 ft 320 kts 163°
2026-05-05 13:18 -16.01123 -47.86066 15113 ft 330 kts 165°
2026-05-05 13:18 -16.03359 -47.85442 16480 ft 336 kts 165°
2026-05-05 13:18 -16.05641 -47.84797 17855 ft 344 kts 166°
2026-05-05 13:18 -16.07969 -47.84115 19100 ft 351 kts 165°
2026-05-05 13:19 -16.10332 -47.83390 20268 ft 357 kts 166°
2026-05-05 13:19 -16.12739 -47.82679 21410 ft 363 kts 166°
2026-05-05 13:19 -16.15193 -47.81947 22462 ft 371 kts 166°
2026-05-05 13:19 -16.17692 -47.81187 23539 ft 377 kts 166°
2026-05-05 13:20 -16.20230 -47.80416 24447 ft 383 kts 166°
2026-05-05 13:20 -16.22807 -47.79638 25359 ft 388 kts 166°
2026-05-05 13:20 -16.25384 -47.78863 26241 ft 393 kts 167°
2026-05-05 13:20 -16.28025 -47.78064 27112 ft 398 kts 167°
2026-05-05 13:21 -16.30698 -47.77253 27960 ft 402 kts 167°
2026-05-05 13:21 -16.33403 -47.76436 28796 ft 407 kts 167°
2026-05-05 13:21 -16.36140 -47.75608 29604 ft 412 kts 167°
2026-05-05 13:21 -16.38906 -47.74771 30374 ft 417 kts 168°
2026-05-05 13:22 -16.41699 -47.73924 31107 ft 418 kts 168°
2026-05-05 13:22 -16.44492 -47.73078 31907 ft 418 kts 168°
2026-05-05 13:22 -16.47250 -47.72242 32666 ft 419 kts 169°
2026-05-05 13:22 -16.50050 -47.71394 33416 ft 419 kts 169°
2026-05-05 13:23 -16.52827 -47.70549 34424 ft 411 kts 170°
2026-05-05 13:23 -16.55555 -47.69721 35212 ft 408 kts 170°
2026-05-05 13:23 -16.58283 -47.68898 35832 ft 408 kts 171°
2026-05-05 13:23 -16.61010 -47.68071 36460 ft 408 kts 171°
2026-05-05 13:24 -16.63735 -47.67243 37079 ft 408 kts 171°
2026-05-05 13:24 -16.66460 -47.66414 37704 ft 408 kts 171°
2026-05-05 13:24 -16.69145 -47.65599 38311 ft 407 kts 171°
2026-05-05 13:24 -16.71861 -47.64776 38911 ft 407 kts 171°
2026-05-05 13:25 -16.74576 -47.63950 39402 ft 406 kts 171°
2026-05-05 13:25 -16.77291 -47.63124 39878 ft 406 kts 171°
2026-05-05 13:25 -16.80003 -47.62300 40368 ft 406 kts 171°
2026-05-05 13:25 -16.82715 -47.61476 40847 ft 406 kts 171°
2026-05-05 13:26 -16.85425 -47.60651 41326 ft 406 kts 171°
2026-05-05 13:26 -16.88134 -47.59827 41798 ft 405 kts 171°
2026-05-05 13:26 -16.90840 -47.59002 42261 ft 405 kts 171°
2026-05-05 13:26 -16.93551 -47.58178 42713 ft 405 kts 171°
2026-05-05 13:27 -16.96218 -47.57365 43153 ft 405 kts 171°
2026-05-05 13:27 -16.98955 -47.56534 43220 ft 415 kts 171°
2026-05-05 13:27 -17.04630 -47.54807 43231 ft 435 kts 171°
2026-05-05 13:28 -17.10560 -47.52996 43236 ft 453 kts 171°
2026-05-05 13:28 -17.16516 -47.51162 43238 ft 427 kts 171°
2026-05-05 13:29 -17.19298 -47.50308 43221 ft 407 kts 171°
2026-05-05 13:29 -17.21918 -47.49516 43222 ft 388 kts 172°
2026-05-05 13:29 -17.24452 -47.48744 43216 ft 371 kts 172°
2026-05-05 13:29 -17.26880 -47.48000 43213 ft 355 kts 172°
2026-05-05 13:30 -17.29198 -47.47288 43215 ft 340 kts 173°
2026-05-05 13:30 -17.31420 -47.46612 43212 ft 325 kts 173°
2026-05-05 13:30 -17.33545 -47.45961 43210 ft 311 kts 174°
2026-05-05 13:30 -17.35577 -47.45339 43208 ft 297 kts 174°
2026-05-05 13:31 -17.37518 -47.44745 43205 ft 284 kts 174°
2026-05-05 13:31 -17.39371 -47.44177 43201 ft 271 kts 175°
2026-05-05 13:31 -17.41110 -47.43644 43197 ft 258 kts 175°
2026-05-05 13:31 -17.42788 -47.43130 43195 ft 246 kts 176°
2026-05-05 13:32 -17.44447 -47.42635 43218 ft 252 kts 176°
2026-05-05 13:32 -17.46167 -47.42119 43226 ft 263 kts 175°
2026-05-05 13:32 -17.47957 -47.41570 43232 ft 274 kts 175°
2026-05-05 13:32 -17.49828 -47.41113 43249 ft 277 kts 183°
2026-05-05 13:33 -17.51790 -47.40849 43109 ft 294 kts 181°
2026-05-05 13:33 -17.53899 -47.40503 42701 ft 317 kts 180°
2026-05-05 13:33 -17.56040 -47.40133 43007 ft 314 kts 180°
2026-05-05 13:33 -17.58191 -47.39795 43242 ft 314 kts 181°
2026-05-05 13:34 -17.62596 -47.39121 43249 ft 327 kts 180°
2026-05-05 13:34 -17.67180 -47.38395 43248 ft 339 kts 180°
2026-05-05 13:35 -17.71938 -47.37648 43245 ft 352 kts 180°
2026-05-05 13:35 -17.76832 -47.36878 43243 ft 364 kts 179°
2026-05-05 13:36 -17.81907 -47.36078 43242 ft 374 kts 179°
2026-05-05 13:36 -17.87130 -47.35257 43240 ft 385 kts 179°
2026-05-05 13:37 -17.92492 -47.34411 43246 ft 394 kts 179°
2026-05-05 13:37 -17.97946 -47.33551 43241 ft 404 kts 179°
2026-05-05 13:38 -18.03559 -47.32665 43235 ft 412 kts 179°
2026-05-05 13:38 -18.09282 -47.31762 43233 ft 420 kts 179°
2026-05-05 13:39 -18.15106 -47.30841 43231 ft 427 kts 179°
2026-05-05 13:39 -18.21026 -47.29904 43234 ft 434 kts 179°
2026-05-05 13:40 -18.26993 -47.28960 43235 ft 439 kts 178°
2026-05-05 13:40 -18.33053 -47.28000 43236 ft 441 kts 178°
2026-05-05 13:41 -18.39079 -47.27041 43234 ft 432 kts 179°
2026-05-05 13:41 -18.44991 -47.26108 43229 ft 427 kts 179°
2026-05-05 13:42 -18.50862 -47.25177 43221 ft 427 kts 179°
2026-05-05 13:42 -18.56705 -47.24248 43219 ft 428 kts 179°
2026-05-05 13:43 -18.62602 -47.23312 43219 ft 429 kts 179°
2026-05-05 13:43 -18.68504 -47.22373 43235 ft 429 kts 179°
2026-05-05 13:44 -18.74393 -47.21436 43237 ft 427 kts 179°
2026-05-05 13:44 -18.80227 -47.20508 43237 ft 427 kts 179°
2026-05-05 13:45 -18.86102 -47.19570 43238 ft 427 kts 179°
2026-05-05 13:45 -18.91987 -47.18632 43235 ft 428 kts 179°
2026-05-05 13:46 -18.97851 -47.17695 43240 ft 426 kts 179°
2026-05-05 13:46 -19.03669 -47.16767 43246 ft 425 kts 179°
2026-05-05 13:47 -19.09524 -47.15830 43244 ft 426 kts 179°
2026-05-05 13:47 -19.15381 -47.14892 43232 ft 425 kts 179°
2026-05-05 13:48 -19.21236 -47.14055 43233 ft 424 kts 180°
2026-05-05 13:48 -19.27094 -47.13235 43261 ft 425 kts 179°
2026-05-05 13:49 -19.32920 -47.12400 43286 ft 426 kts 180°
2026-05-05 13:49 -19.38797 -47.11569 43308 ft 426 kts 180°
2026-05-05 13:50 -19.44653 -47.10734 43323 ft 424 kts 180°
2026-05-05 13:50 -19.50500 -47.09904 43337 ft 424 kts 180°
2026-05-05 13:51 -19.56340 -47.09072 43340 ft 423 kts 180°
2026-05-05 13:51 -19.62138 -47.08245 43362 ft 423 kts 180°
2026-05-05 13:52 -19.67962 -47.07415 43329 ft 422 kts 180°
2026-05-05 13:52 -19.73781 -47.06585 43250 ft 422 kts 180°
2026-05-05 13:53 -19.79611 -47.05752 43252 ft 423 kts 180°
2026-05-05 13:53 -19.85402 -47.04925 43258 ft 423 kts 180°
2026-05-05 13:54 -19.91227 -47.04092 43252 ft 422 kts 180°
2026-05-05 13:54 -19.97050 -47.03259 43252 ft 422 kts 180°
2026-05-05 13:55 -20.02871 -47.02424 43253 ft 422 kts 180°
2026-05-05 13:55 -20.08694 -47.01590 43254 ft 422 kts 180°
2026-05-05 13:56 -20.14470 -47.00761 43247 ft 420 kts 180°
2026-05-05 13:56 -20.20270 -46.99929 43247 ft 420 kts 180°
2026-05-05 13:57 -20.26065 -46.99096 43250 ft 420 kts 180°
2026-05-05 13:57 -20.31864 -46.98264 43246 ft 420 kts 180°
2026-05-05 13:58 -20.37616 -46.97434 43242 ft 419 kts 180°
2026-05-05 13:58 -20.43395 -46.96605 43243 ft 420 kts 180°
2026-05-05 13:59 -20.52084 -46.95350 43255 ft 420 kts 180°
2026-05-05 14:00 -20.60739 -46.94102 43250 ft 420 kts 180°
2026-05-05 14:00 -20.66522 -46.93268 43254 ft 419 kts 180°
2026-05-05 14:01 -20.72300 -46.92432 43254 ft 419 kts 180°
2026-05-05 14:01 -20.78079 -46.91597 43255 ft 419 kts 180°
2026-05-05 14:02 -20.83865 -46.90703 43255 ft 421 kts 179°
2026-05-05 14:02 -20.89621 -46.89795 43252 ft 420 kts 180°
2026-05-05 14:03 -20.95407 -46.88893 43248 ft 421 kts 179°
2026-05-05 14:03 -21.01197 -46.87994 43247 ft 420 kts 179°
2026-05-05 14:04 -21.06950 -46.87089 43256 ft 420 kts 179°
2026-05-05 14:04 -21.12737 -46.86185 43242 ft 420 kts 179°
2026-05-05 14:05 -21.18521 -46.85282 43241 ft 421 kts 179°
2026-05-05 14:05 -21.24319 -46.84369 43245 ft 422 kts 179°
2026-05-05 14:06 -21.30102 -46.83463 43245 ft 423 kts 179°
2026-05-05 14:06 -21.35921 -46.82548 43244 ft 423 kts 179°
2026-05-05 14:07 -21.41746 -46.81633 43242 ft 423 kts 179°
2026-05-05 14:07 -21.47572 -46.80718 43241 ft 423 kts 179°
2026-05-05 14:08 -21.53356 -46.79801 43246 ft 423 kts 179°
2026-05-05 14:08 -21.56275 -46.79341 42982 ft 427 kts 179°
2026-05-05 14:08 -21.59216 -46.78888 42427 ft 426 kts 179°
2026-05-05 14:09 -21.62132 -46.78427 41863 ft 420 kts 179°
2026-05-05 14:09 -21.64998 -46.77960 41314 ft 413 kts 179°
2026-05-05 14:09 -21.67817 -46.77517 40779 ft 407 kts 179°
2026-05-05 14:09 -21.70607 -46.77088 40241 ft 404 kts 179°
2026-05-05 14:10 -21.73392 -46.76652 39722 ft 406 kts 178°
2026-05-05 14:10 -21.76205 -46.76204 39175 ft 411 kts 178°
2026-05-05 14:10 -21.79013 -46.75759 38601 ft 415 kts 178°
2026-05-05 14:10 -21.81873 -46.75307 38042 ft 417 kts 178°
2026-05-05 14:11 -21.84755 -46.74852 37491 ft 420 kts 177°
2026-05-05 14:11 -21.87660 -46.74393 36939 ft 424 kts 177°
2026-05-05 14:11 -21.90588 -46.73929 36375 ft 427 kts 177°
2026-05-05 14:11 -21.93534 -46.73461 35810 ft 429 kts 176°
2026-05-05 14:12 -21.96499 -46.72992 35252 ft 432 kts 176°
2026-05-05 14:12 -21.99481 -46.72519 34671 ft 434 kts 176°
2026-05-05 14:12 -22.02478 -46.72044 34078 ft 437 kts 175°
2026-05-05 14:12 -22.05454 -46.71572 33489 ft 437 kts 175°
2026-05-05 14:13 -22.08464 -46.71094 32908 ft 438 kts 175°
2026-05-05 14:13 -22.11483 -46.70615 32329 ft 439 kts 175°
2026-05-05 14:13 -22.14512 -46.70134 31750 ft 441 kts 175°
2026-05-05 14:13 -22.17548 -46.69651 31177 ft 441 kts 174°
2026-05-05 14:14 -22.20594 -46.69167 30581 ft 443 kts 174°
2026-05-05 14:14 -22.23643 -46.68682 29959 ft 443 kts 174°
2026-05-05 14:14 -22.26704 -46.68196 29362 ft 449 kts 174°
2026-05-05 14:14 -22.29859 -46.67696 28758 ft 464 kts 174°
2026-05-05 14:15 -22.33003 -46.67216 28161 ft 461 kts 175°
2026-05-05 14:15 -22.36197 -46.67163 27545 ft 458 kts 185°
2026-05-05 14:15 -22.39330 -46.67630 26945 ft 454 kts 193°
2026-05-05 14:15 -22.42342 -46.68602 26349 ft 451 kts 201°
2026-05-05 14:16 -22.45169 -46.70050 25753 ft 449 kts 209°
2026-05-05 14:16 -22.47752 -46.71933 25160 ft 448 kts 217°
2026-05-05 14:16 -22.50068 -46.74177 24572 ft 446 kts 222°
2026-05-05 14:16 -22.52327 -46.76465 23987 ft 444 kts 221°
2026-05-05 14:17 -22.54587 -46.78730 23347 ft 441 kts 221°
2026-05-05 14:17 -22.56780 -46.80944 23229 ft 436 kts 222°
2026-05-05 14:17 -22.59003 -46.83201 23230 ft 439 kts 222°
2026-05-05 14:17 -22.61232 -46.85458 23219 ft 439 kts 222°
2026-05-05 14:18 -22.63468 -46.87718 23029 ft 440 kts 222°
2026-05-05 14:18 -22.65698 -46.89975 22764 ft 438 kts 222°
2026-05-05 14:18 -22.67999 -46.92120 22474 ft 435 kts 215°
2026-05-05 14:18 -22.70533 -46.93889 22190 ft 432 kts 211°
2026-05-05 14:19 -22.73081 -46.95619 21915 ft 431 kts 212°
2026-05-05 14:19 -22.75604 -46.97357 21642 ft 431 kts 212°
2026-05-05 14:19 -22.78098 -46.99059 21359 ft 428 kts 211°
2026-05-05 14:19 -22.80619 -47.00768 21084 ft 427 kts 211°
2026-05-05 14:20 -22.83124 -47.02475 20809 ft 425 kts 211°
2026-05-05 14:20 -22.85622 -47.04187 20536 ft 424 kts 212°
2026-05-05 14:20 -22.88113 -47.05889 20261 ft 422 kts 211°
2026-05-05 14:20 -22.90593 -47.07573 19991 ft 420 kts 211°
2026-05-05 14:21 -22.93082 -47.09247 19712 ft 419 kts 211°
2026-05-05 14:21 -22.95553 -47.10915 19443 ft 418 kts 211°
2026-05-05 14:21 -22.98024 -47.12473 19165 ft 416 kts 205°
2026-05-05 14:21 -23.00713 -47.13595 18884 ft 414 kts 197°
2026-05-05 14:22 -23.03522 -47.14251 18614 ft 413 kts 188°
2026-05-05 14:22 -23.06392 -47.14420 18307 ft 413 kts 179°
2026-05-05 14:22 -23.09242 -47.14095 17990 ft 412 kts 170°
2026-05-05 14:22 -23.12049 -47.13459 17697 ft 411 kts 169°
2026-05-05 14:23 -23.14844 -47.12853 17399 ft 410 kts 169°
2026-05-05 14:23 -23.17603 -47.12258 17103 ft 408 kts 169°
2026-05-05 14:23 -23.20380 -47.11641 16799 ft 407 kts 168°
2026-05-05 14:23 -23.23151 -47.11022 16525 ft 406 kts 168°
2026-05-05 14:24 -23.25916 -47.10413 16263 ft 405 kts 169°
2026-05-05 14:24 -23.28669 -47.09812 16003 ft 402 kts 169°
2026-05-05 14:24 -23.31407 -47.09217 15744 ft 399 kts 168°
2026-05-05 14:24 -23.34133 -47.08619 15480 ft 399 kts 168°
2026-05-05 14:25 -23.36842 -47.08007 15227 ft 401 kts 167°
2026-05-05 14:25 -23.39439 -47.07030 14960 ft 399 kts 155°
2026-05-05 14:25 -23.41847 -47.05549 14701 ft 396 kts 145°
2026-05-05 14:25 -23.43949 -47.03635 14437 ft 394 kts 135°
2026-05-05 14:26 -23.45701 -47.01344 14177 ft 393 kts 125°
2026-05-05 14:26 -23.47162 -46.98835 13913 ft 394 kts 122°
2026-05-05 14:26 -23.48633 -46.96329 13637 ft 391 kts 123°
2026-05-05 14:26 -23.50104 -46.93831 13370 ft 390 kts 122°
2026-05-05 14:27 -23.51551 -46.91334 13103 ft 388 kts 122°
2026-05-05 14:27 -23.52991 -46.88851 12857 ft 386 kts 122°
2026-05-05 14:27 -23.54415 -46.86422 12662 ft 387 kts 123°
2026-05-05 14:27 -23.55940 -46.84029 12411 ft 384 kts 130°
2026-05-05 14:28 -23.57857 -46.81998 12138 ft 384 kts 140°
2026-05-05 14:28 -23.60002 -46.80389 11889 ft 361 kts 148°
2026-05-05 14:28 -23.62051 -46.78990 11633 ft 334 kts 147°
2026-05-05 14:28 -23.63942 -46.77657 11350 ft 314 kts 148°
2026-05-05 14:29 -23.65737 -46.76406 11046 ft 299 kts 149°
2026-05-05 14:29 -23.67455 -46.75228 10733 ft 286 kts 149°
2026-05-05 14:29 -23.69090 -46.74098 10453 ft 278 kts 148°
2026-05-05 14:29 -23.70710 -46.72970 10132 ft 275 kts 148°
2026-05-05 14:30 -23.72327 -46.71848 9780 ft 275 kts 148°
2026-05-05 14:30 -23.73945 -46.70723 9460 ft 275 kts 149°
2026-05-05 14:30 -23.75559 -46.69606 9151 ft 275 kts 149°
2026-05-05 14:30 -23.77158 -46.68502 8834 ft 268 kts 148°
2026-05-05 14:31 -23.78714 -46.67421 8522 ft 262 kts 148°
2026-05-05 14:31 -23.80235 -46.66360 8175 ft 257 kts 148°
2026-05-05 14:31 -23.81726 -46.65319 7844 ft 247 kts 149°
2026-05-05 14:31 -23.83053 -46.64394 7473 ft 216 kts 149°
2026-05-05 14:32 -23.84337 -46.63508 7077 ft 219 kts 149°
2026-05-05 14:32 -23.85626 -46.62614 6696 ft 220 kts 149°
2026-05-05 14:32 -23.86911 -46.61714 6307 ft 220 kts 149°
2026-05-05 14:32 -23.88187 -46.60812 5912 ft 213 kts 148°
2026-05-05 14:33 -23.89405 -46.59957 5491 ft 208 kts 148°
2026-05-05 14:33 -23.90605 -46.59085 5216 ft 202 kts 140°
2026-05-05 14:33 -23.91198 -46.57817 5168 ft 183 kts 89°
2026-05-05 14:33 -23.90816 -46.56575 5165 ft 176 kts 57°
2026-05-05 14:34 -23.89923 -46.55695 5214 ft 174 kts 19°
2026-05-05 14:34 -23.88750 -46.55436 5227 ft 173 kts
2026-05-05 14:34 -23.87557 -46.55312 5242 ft 173 kts
2026-05-05 14:34 -23.86360 -46.55140 5249 ft 174 kts
2026-05-05 14:35 -23.85162 -46.54946 5255 ft 174 kts
2026-05-05 14:35 -23.83965 -46.54754 5247 ft 173 kts
2026-05-05 14:35 -23.82766 -46.54567 5256 ft 174 kts
2026-05-05 14:35 -23.81581 -46.54373 5268 ft 174 kts
2026-05-05 14:36 -23.80386 -46.54185 5267 ft 173 kts
2026-05-05 14:36 -23.79206 -46.54308 5258 ft 170 kts 339°
2026-05-05 14:36 -23.78190 -46.54906 5257 ft 159 kts 327°
2026-05-05 14:36 -23.77275 -46.55506 5263 ft 149 kts 327°
2026-05-05 14:37 -23.76424 -46.56069 5285 ft 145 kts 326°
2026-05-05 14:37 -23.75595 -46.56674 5297 ft 142 kts 326°
2026-05-05 14:37 -23.74757 -46.57245 5218 ft 144 kts 328°
2026-05-05 14:37 -23.73923 -46.57818 5048 ft 141 kts 326°
2026-05-05 14:38 -23.73112 -46.58387 4856 ft 139 kts 326°
2026-05-05 14:38 -23.72300 -46.58957 4700 ft 140 kts 327°
2026-05-05 14:38 -23.71472 -46.59526 4509 ft 139 kts 326°
2026-05-05 14:38 -23.70689 -46.60073 4329 ft 129 kts 328°
2026-05-05 14:39 -23.69931 -46.60599 4170 ft 131 kts 324°
2026-05-05 14:39 -23.69179 -46.61134 4005 ft 127 kts 328°
2026-05-05 14:39 -23.68423 -46.61639 3841 ft 128 kts 326°
2026-05-05 14:39 -23.67683 -46.62175 3675 ft 126 kts 327°
2026-05-05 14:40 -23.66936 -46.62675 3511 ft 129 kts 327°
2026-05-05 14:40 -23.66177 -46.63211 3359 ft 129 kts 327°
2026-05-05 14:40 -23.65428 -46.63739 3225 ft 132 kts 328°
2026-05-05 14:40 -23.64650 -46.64281 2964 ft 134 kts 329°
2026-05-05 14:41 -23.63870 -46.64824 2776 ft 132 kts 330°
2026-05-05 14:41 -23.63127 -46.65329 2635 ft 113 kts 330°
2026-05-05 14:41 -23.62666 -46.65644 2618 ft 54 kts 328°
2026-05-05 14:41 -23.62380 -46.65842 2611 ft 44 kts 328°
2026-05-05 14:42 -23.62201 -46.65976 2606 ft 15 kts 296°
2026-05-05 14:42 -23.62230 -46.66040 2606 ft 6 kts 204°
2026-05-05 14:42 -23.62272 -46.66041 2608 ft 9 kts 175°
2026-05-05 14:42 -23.62352 -46.66018 2611 ft 15 kts 151°
2026-05-05 14:43 -23.62439 -46.65960 2613 ft 14 kts 151°
2026-05-05 14:43 -23.62483 -46.65979 2614 ft 4 kts 238°
2026-05-05 14:43 -23.62487 -46.65986 2614 ft 0 kts 238°